| time (UTC) | temp C | wind direction | speed KPH | gust KPH | rain 1hr cm | rain 24hr cm | rain mn cm | humidity % | barometer mb |
| 20260507170055 | 17 | 205 | 4.8 | 12.9 | 0.00 | 0.00 | 0.00 | 56 | 1015.4 |
| 20260507164555 | 16 | 278 | 1.6 | 6.4 | 0.00 | 0.00 | 0.00 | 55 | 1015.5 |
| 20260507163049 | 16 | 276 | 1.6 | 11.3 | 0.00 | 0.00 | 0.00 | 56 | 1015.6 |
| 20260507161549 | 16 | 273 | 1.6 | 8.0 | 0.00 | 0.00 | 0.00 | 58 | 1015.9 |
| 20260507160045 | 16 | 212 | 0.0 | 8.0 | 0.00 | 0.00 | 0.00 | 59 | 1016.1 |
| 20260507154541 | 15 | 360 | 3.2 | 22.5 | 0.00 | 0.00 | 0.00 | 59 | 1016.3 |
| 20260507153043 | 15 | 360 | 0.0 | 16.1 | 0.00 | 0.00 | 0.00 | 61 | 1016.2 |
| 20260507151538 | 15 | 295 | 3.2 | 16.1 | 0.00 | 0.00 | 0.00 | 62 | 1016.5 |
| 20260507150035 | 15 | 290 | 0.0 | 4.8 | 0.00 | 0.00 | 0.00 | 64 | 1016.7 |
| 20260507144530 | 13 | 298 | 0.0 | 6.4 | 0.00 | 0.00 | 0.00 | 65 | 1016.9 |
| 20260507143028 | 13 | 360 | 0.0 | 4.8 | 0.00 | 0.00 | 0.00 | 66 | 1016.8 |
| 20260507141525 | 13 | 238 | 0.0 | 8.0 | 0.00 | 0.00 | 0.00 | 67 | 1017.0 |
| 20260507140021 | 12 | 360 | 0.0 | 4.8 | 0.00 | 0.00 | 0.00 | 69 | 1017.0 |
| 20260507134518 | 12 | 269 | 1.6 | 3.2 | 0.00 | 0.00 | 0.00 | 70 | 1017.1 |
| 20260507133013 | 11 | 321 | 0.0 | 1.6 | 0.00 | 0.00 | 0.00 | 73 | 1017.3 |
| 20260507131517 | 10 | 284 | 0.0 | 1.6 | 0.00 | 0.00 | 0.00 | 76 | 1017.3 |
| 20260507130012 | 9 | 222 | 0.0 | 1.6 | 0.00 | 0.00 | 0.00 | 79 | 1017.3 |
| 20260507124510 | 8 | 250 | 0.0 | 0.0 | 0.00 | 0.00 | 0.00 | 82 | 1017.2 |
| 20260507123004 | 7 | 286 | 0.0 | 0.0 | 0.00 | 0.00 | 0.00 | 84 | 1017.2 |
| 20260507121503 | 7 | 228 | 0.0 | 0.0 | 0.00 | 0.00 | 0.00 | 86 | 1017.1 |
| 20260507120004 | 6 | 360 | 0.0 | 3.2 | 0.00 | 0.00 | 0.00 | 86 | 1017.1 |
| 20260507114501 | 6 | 225 | 0.0 | 1.6 | 0.00 | 0.00 | 0.00 | 86 | 1017.2 |
| 20260507113103 | 6 | 221 | 0.0 | 0.0 | 0.00 | 0.00 | 0.00 | 86 | 1017.2 |
| 20260507111600 | 6 | 245 | 0.0 | 0.0 | 0.00 | 0.00 | 0.00 | 85 | 1017.1 |
| 20260507110059 | 6 | 235 | 0.0 | 0.0 | 0.00 | 0.00 | 0.00 | 84 | 1017.1 |
| 20260507104556 | 6 | 248 | 0.0 | 0.0 | 0.00 | 0.03 | 0.00 | 84 | 1017.1 |
| 20260507103055 | 6 | 235 | 0.0 | 0.0 | 0.00 | 0.03 | 0.00 | 83 | 1017.1 |
| 20260507101556 | 7 | 228 | 0.0 | 0.0 | 0.00 | 0.03 | 0.00 | 82 | 1017.3 |
| 20260507100053 | 7 | 215 | 0.0 | 0.0 | 0.00 | 0.03 | 0.00 | 81 | 1017.4 |
| 20260507094549 | 7 | 227 | 0.0 | 0.0 | 0.00 | 0.03 | 0.00 | 80 | 1017.3 |
| 20260507093053 | 7 | 242 | 0.0 | 0.0 | 0.00 | 0.03 | 0.00 | 80 | 1017.4 |
| 20260507091545 | 7 | 360 | 0.0 | 0.0 | 0.00 | 0.03 | 0.00 | 79 | 1017.4 |
| 20260507090042 | 8 | 238 | 0.0 | 4.8 | 0.00 | 0.03 | 0.00 | 78 | 1017.6 |
| 20260507084543 | 8 | 240 | 0.0 | 3.2 | 0.00 | 0.03 | 0.00 | 77 | 1017.6 |
| 20260507083039 | 8 | 275 | 0.0 | 0.0 | 0.00 | 0.03 | 0.00 | 76 | 1017.8 |
| 20260507081537 | 8 | 260 | 0.0 | 3.2 | 0.00 | 0.03 | 0.00 | 76 | 1017.9 |
| 20260507080040 | 8 | 307 | 0.0 | 1.6 | 0.00 | 0.03 | 0.00 | 75 | 1017.8 |
| 20260507074536 | 8 | 175 | 0.0 | 0.0 | 0.00 | 0.03 | 0.00 | 76 | 1017.9 |
| 20260507073037 | 8 | 249 | 0.0 | 0.0 | 0.00 | 0.03 | 0.00 | 75 | 1018.0 |
| 20260507071559 | 8 | 360 | 0.0 | 0.0 | 0.00 | 0.03 | 0.00 | 75 | 1018.0 |
| 20260507070033 | 8 | 226 | 0.0 | 0.0 | 0.00 | 0.03 | 0.00 | 75 | 1018.2 |
| 20260507064530 | 8 | 241 | 0.0 | 0.0 | 0.00 | 0.03 | 0.00 | 74 | 1018.3 |
| 20260507063026 | 9 | 360 | 0.0 | 0.0 | 0.00 | 0.03 | 0.00 | 72 | 1018.5 |
| 20260507061525 | 10 | 259 | 0.0 | 0.0 | 0.00 | 0.03 | 0.00 | 71 | 1018.7 |
| 20260507060024 | 10 | 259 | 0.0 | 0.0 | 0.00 | 0.03 | 0.00 | 70 | 1018.7 |
| 20260507054523 | 10 | 244 | 0.0 | 1.6 | 0.00 | 0.03 | 0.00 | 69 | 1018.7 |
| 20260507053022 | 10 | 360 | 0.0 | 0.0 | 0.00 | 0.03 | 0.00 | 70 | 1018.8 |
| 20260507051528 | 10 | 230 | 0.0 | 0.0 | 0.00 | 0.03 | 0.00 | 71 | 1018.7 |
| 20260507050019 | 9 | 255 | 0.0 | 1.6 | 0.00 | 0.03 | 0.00 | 71 | 1018.7 |
| 20260507044515 | 9 | 253 | 0.0 | 0.0 | 0.00 | 0.03 | 0.03 | 71 | 1018.9 |
| 20260507043015 | 9 | 233 | 0.0 | 3.2 | 0.00 | 0.03 | 0.03 | 69 | 1018.8 |
| 20260507041515 | 8 | 219 | 0.0 | 1.6 | 0.00 | 0.03 | 0.03 | 73 | 1019.0 |
| 20260507040015 | 7 | 234 | 0.0 | 0.0 | 0.00 | 0.03 | 0.03 | 76 | 1018.8 |
| 20260507034528 | 7 | 214 | 0.0 | 0.0 | 0.00 | 0.08 | 0.03 | 76 | 1018.9 |
| 20260507033023 | 7 | 214 | 0.0 | 0.0 | 0.00 | 0.08 | 0.03 | 76 | 1018.8 |
| 20260507031512 | 7 | 207 | 0.0 | 1.6 | 0.00 | 0.08 | 0.03 | 77 | 1019.1 |
| 20260507030013 | 7 | 263 | 0.0 | 1.6 | 0.00 | 0.08 | 0.03 | 77 | 1018.9 |
| 20260507024512 | 7 | 267 | 0.0 | 1.6 | 0.00 | 0.08 | 0.03 | 76 | 1018.7 |
| 20260507023019 | 7 | 268 | 0.0 | 0.0 | 0.00 | 0.08 | 0.03 | 75 | 1018.5 |
| 20260507021510 | 8 | 322 | 0.0 | 0.0 | 0.00 | 0.08 | 0.03 | 74 | 1018.3 |
| 20260507020015 | 8 | 322 | 0.0 | 0.0 | 0.00 | 0.08 | 0.03 | 72 | 1018.3 |
| 20260507014512 | 10 | 322 | 0.0 | 0.0 | 0.00 | 0.08 | 0.03 | 67 | 1018.1 |
| 20260507013008 | 11 | 322 | 0.0 | 0.0 | 0.00 | 0.08 | 0.03 | 64 | 1017.9 |
| 20260507011507 | 13 | 322 | 0.0 | 0.0 | 0.00 | 0.08 | 0.03 | 59 | 1017.9 |
| 20260507010013 | 13 | 322 | 0.0 | 0.0 | 0.00 | 0.08 | 0.03 | 54 | 1018.0 |
| 20260507004506 | 13 | 322 | 0.0 | 1.6 | 0.00 | 0.08 | 0.03 | 47 | 1017.9 |
| 20260507003006 | 14 | 21 | 0.0 | 3.2 | 0.00 | 0.08 | 0.03 | 44 | 1018.0 |
| 20260507001505 | 15 | 149 | 0.0 | 0.0 | 0.00 | 0.08 | 0.03 | 42 | 1017.9 |
| 20260507000011 | 15 | 55 | 0.0 | 0.0 | 0.00 | 0.08 | 0.03 | 39 | 1018.1 |
| 20260506234508 | 15 | 348 | 0.0 | 0.0 | 0.00 | 0.08 | 0.03 | 40 | 1018.1 |
| 20260506233004 | 16 | 53 | 0.0 | 0.0 | 0.00 | 0.08 | 0.03 | 38 | 1018.1 |
| 20260506231506 | 16 | 11 | 0.0 | 1.6 | 0.00 | 0.08 | 0.03 | 41 | 1018.1 |
| 20260506230003 | 16 | 306 | 0.0 | 4.8 | 0.00 | 0.08 | 0.03 | 39 | 1018.4 |
| 20260506224502 | 16 | 325 | 0.0 | 0.0 | 0.00 | 0.08 | 0.03 | 39 | 1018.4 |
| 20260506223001 | 16 | 351 | 0.0 | 3.2 | 0.00 | 0.08 | 0.03 | 36 | 1018.4 |
| 20260506221505 | 16 | 46 | 0.0 | 0.0 | 0.00 | 0.08 | 0.03 | 37 | 1018.4 |
| 20260506220001 | 16 | 350 | 0.0 | 1.6 | 0.00 | 0.25 | 0.03 | 36 | 1018.5 |
| 20260506214605 | 16 | 355 | 0.0 | 8.0 | 0.00 | 0.25 | 0.03 | 37 | 1018.7 |
| 20260506213059 | 16 | 69 | 0.0 | 3.2 | 0.00 | 0.25 | 0.03 | 37 | 1018.8 |
| 20260506211606 | 16 | 44 | 0.0 | 3.2 | 0.00 | 0.25 | 0.03 | 37 | 1018.9 |
| 20260506210059 | 17 | 40 | 0.0 | 8.0 | 0.00 | 0.25 | 0.03 | 38 | 1019.1 |
| 20260506204559 | 16 | 319 | 0.0 | 6.4 | 0.00 | 0.25 | 0.03 | 38 | 1019.3 |
| 20260506203055 | 16 | 88 | 0.0 | 4.8 | 0.00 | 0.25 | 0.03 | 36 | 1019.4 |
| 20260506201555 | 16 | 24 | 0.0 | 9.7 | 0.00 | 0.25 | 0.03 | 41 | 1019.8 |
| 20260506200104 | 16 | 32 | 0.0 | 6.4 | 0.00 | 0.25 | 0.03 | 38 | 1019.9 |
| 20260506194601 | 15 | 63 | 0.0 | 6.4 | 0.00 | 0.25 | 0.03 | 39 | 1019.9 |
| 20260506193055 | 15 | 69 | 0.0 | 3.2 | 0.00 | 0.25 | 0.03 | 38 | 1019.8 |
| 20260506191604 | 15 | 46 | 0.0 | 6.4 | 0.00 | 0.25 | 0.03 | 39 | 1019.8 |
| 20260506190052 | 15 | 306 | 0.0 | 6.4 | 0.00 | 0.25 | 0.03 | 40 | 1020.0 |
| 20260506184551 | 15 | 186 | 0.0 | 4.8 | 0.00 | 0.25 | 0.03 | 38 | 1020.1 |
| 20260506183051 | 15 | 13 | 0.0 | 6.4 | 0.00 | 0.25 | 0.03 | 38 | 1020.2 |
| 20260506181556 | 15 | 83 | 0.0 | 4.8 | 0.00 | 0.25 | 0.03 | 37 | 1020.3 |
| 20260506180103 | 14 | 34 | 0.0 | 0.0 | 0.00 | 0.25 | 0.03 | 39 | 1020.5 |
| 20260506174541 | 14 | 67 | 0.0 | 3.2 | 0.00 | 0.25 | 0.03 | 41 | 1020.6 |
| 20260506173042 | 14 | 21 | 0.0 | 4.8 | 0.00 | 0.25 | 0.03 | 46 | 1020.7 |
| 20260506171537 | 13 | 355 | 0.0 | 4.8 | 0.00 | 0.25 | 0.03 | 42 | 1020.8 |